Location: Alafon
(8.4500°N, 4.2333°E)
Time: 01:48:20
(UTC+00:00)

Cosmos 2322 Rocket - Pass Details

Date: 05 July 2020
Orbit: 832 x 851 km, 71.0° (Epoch: 06 August)

Event Time Altitude Azimuth Distance (km) Brightness Sun altitude
Rises 19:43:16 0° 221° (SW) 3,373 5.5 -22.6°
Reaches altitude 10° 19:46:08 10° 234° (SW) 2,437 4.9 -23.2°
Maximum altitude 19:50:35 24° 288° (WNW) 1,641 4.4 -24.1°
Drops below altitude 10° 19:55:02 10° 341° (NNW) 2,431 5.2 -25.1°
Sets 19:57:54 0° 355° (N) 3,364 5.8 -25.7°
